sat.trackr.live / text

‹ back to catalog

STARLINK-31680

NORAD 59380 · 2024-062G

PAYLOAD ACTIVE UNKNOWN

§ Identity

Operator
Country
US
Launch date
2024-04-02
Launch site
AFWTR
Launch vehicle
Mass (kg)
RCS (m²)

Purposes: comms

External: N2YO · Heavens-Above · Gunter

§ Orbital elements

Epoch: 2026-09-20T14:39:19.844640Z

Period
93.85 min
Inclination
53.1606°
Eccentricity
0.0000948
Mean motion
15.34389771 rev/d
Perigee alt
462.1 km
Apogee alt
463.4 km
Semi-major
6,840.9 km
B*
2.3936e-5
RAAN
68.9388°
Arg perigee
89.2609°
Mean anomaly
270.8502°
Rev number
13,949

§ Raw data

STARLINK-316801 59380U 24062G   26263.61064635  .00000433  00000+0  23936-4 0  99952 59380  53.1606  68.9388 0000948  89.2609 270.8502 15.34389771139493

JSON: /api/v1/satellites/59380 · /tle

For live sub-satellite position, see the globe view (requires WebGL).

§ Visibility from observer

Set your observer location to see the next 7 days of passes ≥ 10°. The values pass through the URL so the page stays shareable.

No JS? Fill the form by hand. The geolocation button needs JavaScript.